STARLINK-36425, 67467

Orbit data source: Space-Track

STARLINK-36425, 67467 is a payload satellite owned by SpaceX/Seattle (US) in LEO that was launched on Wed, 14 Jan 2026 UTC via an FALCON 9 launch vehicle from the Air Force Eastern Test Range (AFETR). Payload-class satellites include a variety of spacecraft equipped with specific instruments for various scientific and technological missions. These include communications satellites like Starlink; space stations such as the ISS; scientific satellites like the Hubble; Earth observation satellites from companies like Planet Labs, Umbra, and HawkEye 360; GPS; miniature CubeSats for education and research; and military/defense satellites.

Loading next visibility...
Identifier
67467, 2026-008Y
Orbit
LEO
Country
Flag of USUS
Related business
Manufacturer
SpaceX/Seattle
Mission
Operational Commercial Communications
Bus & Motor
STARLINK V2MO, Unknown motor
Mass
575 kg wet, ~530 kg dry
Launch date (UTC)
2026-01-14 (5 months ago)
Launch vehicle
FALCON 9
Launch site
Air Force Eastern Test Range (AFETR)
Object type
Payload
Rocket body
Debris
Shape & HBR
Box + 2 Pan, 17.7 m
Radar Cross Section
36.964 m², Large (>1 m²)

Expand to show TLE details & history
Last TLE update: 1 day ago

TLE from 1 day ago
0 STARLINK-36425
1 67467U 26008Y   26170.52535581  .00014884  00000-0  54897-3 0  9997
2 67467  42.9988 350.3850 0000145  58.7422 301.3444 15.27598854 25149
Epoch: 2026-06-19T12:36Z
TLE epoch observation values (Epoch: 2026-06-19T12:36:30.741Z)
Latitude
-0.00003°
Longitude
-106.4962°
Altitude
482.716 km
Speed
7.626 km/s
True Right ascension
23h 21m 32s
True Declination
0° 00' 00"
Sunlit
Object was in daylight at epoch
Visualization orbit readout
Latitude
Unknown
Longitude
Unknown
Altitude
Unknown
Speed
Unknown
Apparent Right ascension
Unknown
Apparent Declination
Unknown
Sunlit
N/A
Visualization observer readout
Local Sidereal Time
07:20:53
Azimuth
Unknown
Elevation
Unknown
Doppler factor
Unknown
Orbital elements
Apogee altitude
485.038 km
Perigee altitude
484.839 km
Semi-major axis
6,863.075 km
Eccentricity
0.00001
Inclination
42.9988°
RAAN
350.385°
Arg. of periapsis
58.7422°
True anomaly
301.34298°
Mean anomaly
301.3444°
Eccentric anomaly
301.34369°
Mean motion
3.81738 °/min
Orbital period
94.31 mins
BSTAR
0.00054897
Loading maneuver chart data...
Computing Atmospheric mass density...
Loading historical data...
Loading historical data...
Loading historical data...
Loading historical data...
Loading historical data...
Loading historical data...
Loading historical data...

Documentation

Showing up to 5 results
|